{"data":{"norad_id":52293,"intl_designator":"2022-041AJ","name":"STARLINK-3771","alt_names":[],"object_type":"PAYLOAD","status":"ACTIVE","operator":null,"country":"US","launch_date":"2022-04-21","launch_site_code":"AFETR","launch_vehicle":null,"mission":null,"orbit_class":"UNKNOWN","rcs_meters":null,"size_class":null,"mass_kg":null,"dimensions":null,"purposes":["comms"],"wikipedia_slug":null,"has_3d_model":false,"image_url":null,"decayed_at":null,"tle_current":{"epoch":"2026-09-19T17:36:09.237600Z","epoch_age_seconds":125778,"freshness":"FRESH","line1":"1 52293U 22041AJ  26262.73344025  .00000442  00000+0  24225-4 0  9994","line2":"2 52293  53.1590 294.9749 0001241  87.3877 272.7267 15.34387719243974","mean_motion":15.34387719,"eccentricity":0.0001241,"inclination_deg":53.159,"raan_deg":294.9749,"arg_perigee_deg":87.3877,"mean_anomaly_deg":272.7267,"bstar":2.4225e-5,"rev_number":24397,"period_min":93.848509224154,"perigee_km":461.89078936697,"apogee_km":463.58869497437,"semimajor_km":6840.8767421707,"source":"CELESTRAK","updated_at":"2026-09-20T09:00:40.016741Z"}}}